Year,Month,Day,Hour,Minute,Value (Times are PST for windspeed in km/hr)
2013,02,25,00,00,7.20
2013,02,25,00,01,10.50
2013,02,25,00,02,10.10
2013,02,25,00,03,10.30
2013,02,25,00,04,11.20
2013,02,25,00,05,8.90
2013,02,25,00,06,6.40
2013,02,25,00,07,1.40
2013,02,25,00,08,1.30
2013,02,25,00,09,4.30
2013,02,25,00,10,1.40
2013,02,25,00,11,3.60
2013,02,25,00,12,1.30
2013,02,25,00,13,3.50
2013,02,25,00,14,5.30
2013,02,25,00,15,1.00
2013,02,25,00,16,6.10
2013,02,25,00,17,3.00
2013,02,25,00,18,3.90
2013,02,25,00,19,0.00
2013,02,25,00,20,0.00
2013,02,25,00,21,0.10
2013,02,25,00,22,1.30
2013,02,25,00,23,2.20
2013,02,25,00,24,0.00
2013,02,25,00,25,1.60
2013,02,25,00,26,2.50
2013,02,25,00,27,5.10
2013,02,25,00,28,1.50
2013,02,25,00,29,3.60
2013,02,25,00,30,0.00
2013,02,25,00,31,0.00
2013,02,25,00,32,1.50
2013,02,25,00,33,0.00
2013,02,25,00,34,0.10
2013,02,25,00,35,3.30
2013,02,25,00,36,0.30
2013,02,25,00,37,0.00
2013,02,25,00,38,0.00
2013,02,25,00,39,0.90
2013,02,25,00,40,1.30
2013,02,25,00,41,0.40
2013,02,25,00,42,2.00
2013,02,25,00,43,0.00
2013,02,25,00,44,0.00
2013,02,25,00,45,0.00
2013,02,25,00,46,0.00
2013,02,25,00,47,0.00
2013,02,25,00,48,0.00
2013,02,25,00,49,1.90
2013,02,25,00,50,7.30
2013,02,25,00,51,3.80
2013,02,25,00,52,7.00
2013,02,25,00,53,3.40
2013,02,25,00,54,7.70
2013,02,25,00,55,7.00
2013,02,25,00,56,1.60
2013,02,25,00,57,4.50
2013,02,25,00,58,3.60
2013,02,25,00,59,2.70
2013,02,25,01,00,0.10
2013,02,25,01,01,0.10
2013,02,25,01,02,1.80
2013,02,25,01,03,3.90
2013,02,25,01,04,1.40
2013,02,25,01,05,0.00
2013,02,25,01,06,0.00
2013,02,25,01,07,0.00
2013,02,25,01,08,0.00
2013,02,25,01,09,0.00
2013,02,25,01,10,0.00
2013,02,25,01,11,0.00
2013,02,25,01,12,0.10
2013,02,25,01,13,0.00
2013,02,25,01,14,0.00
2013,02,25,01,15,0.00
2013,02,25,01,16,0.00
2013,02,25,01,17,0.00
2013,02,25,01,18,0.00
2013,02,25,01,19,0.00
2013,02,25,01,20,0.00
2013,02,25,01,21,0.10
2013,02,25,01,22,0.00
2013,02,25,01,23,1.60
2013,02,25,01,24,0.10
2013,02,25,01,25,0.00
2013,02,25,01,26,0.10
2013,02,25,01,27,0.00
2013,02,25,01,28,0.00
2013,02,25,01,29,0.00
2013,02,25,01,30,0.00
2013,02,25,01,31,0.00
2013,02,25,01,32,0.00
2013,02,25,01,33,0.90
2013,02,25,01,34,1.40
2013,02,25,01,35,0.00
2013,02,25,01,36,0.80
2013,02,25,01,37,2.40
2013,02,25,01,38,0.80
2013,02,25,01,39,8.90
2013,02,25,01,40,8.90
2013,02,25,01,41,9.20
2013,02,25,01,42,7.50
2013,02,25,01,43,5.20
2013,02,25,01,44,6.90
2013,02,25,01,45,7.30
2013,02,25,01,46,11.10
2013,02,25,01,47,12.20
2013,02,25,01,48,14.70
2013,02,25,01,49,9.30
2013,02,25,01,50,9.10
2013,02,25,01,51,11.00
2013,02,25,01,52,12.60
2013,02,25,01,53,12.30
2013,02,25,01,54,5.60
2013,02,25,01,55,11.90
2013,02,25,01,56,9.30
2013,02,25,01,57,11.90
2013,02,25,01,58,13.70
2013,02,25,01,59,13.40
2013,02,25,02,00,10.90
2013,02,25,02,01,12.30
2013,02,25,02,02,6.80
2013,02,25,02,03,6.90
2013,02,25,02,04,7.50
2013,02,25,02,05,5.60
2013,02,25,02,06,10.20
2013,02,25,02,07,8.00
2013,02,25,02,08,9.90
2013,02,25,02,09,10.10
2013,02,25,02,10,13.00
2013,02,25,02,11,15.30
2013,02,25,02,12,9.90
2013,02,25,02,13,21.20
2013,02,25,02,14,7.00
2013,02,25,02,15,14.20
2013,02,25,02,16,7.10
2013,02,25,02,17,11.10
2013,02,25,02,18,9.20
2013,02,25,02,19,6.50
2013,02,25,02,20,5.60
2013,02,25,02,21,6.60
2013,02,25,02,22,6.40
2013,02,25,02,23,5.10
2013,02,25,02,24,3.80
2013,02,25,02,25,9.70
2013,02,25,02,26,12.70
2013,02,25,02,27,11.20
2013,02,25,02,28,6.20
2013,02,25,02,29,13.60
2013,02,25,02,30,13.80
2013,02,25,02,31,5.70
2013,02,25,02,32,4.00
2013,02,25,02,33,6.00
2013,02,25,02,34,4.50
2013,02,25,02,35,10.80
2013,02,25,02,36,6.80
2013,02,25,02,37,10.00
2013,02,25,02,38,6.00
2013,02,25,02,39,5.90
2013,02,25,02,40,6.00
2013,02,25,02,41,5.60
2013,02,25,02,42,9.00
2013,02,25,02,43,8.90
2013,02,25,02,44,11.70
2013,02,25,02,45,9.60
2013,02,25,02,46,10.20
2013,02,25,02,47,13.30
2013,02,25,02,48,9.00
2013,02,25,02,49,8.30
2013,02,25,02,50,8.00
2013,02,25,02,51,10.60
2013,02,25,02,52,9.00
2013,02,25,02,53,13.00
2013,02,25,02,54,16.30
2013,02,25,02,55,9.70
2013,02,25,02,56,20.60
2013,02,25,02,57,9.00
2013,02,25,02,58,10.10
2013,02,25,02,59,13.70
2013,02,25,03,00,12.60
2013,02,25,03,01,9.70
2013,02,25,03,02,15.90
2013,02,25,03,06,16.40
2013,02,25,03,07,11.50
2013,02,25,03,08,19.80
2013,02,25,03,09,7.90
2013,02,25,03,10,5.40
2013,02,25,03,11,14.00
2013,02,25,03,12,17.20
2013,02,25,03,13,15.10
2013,02,25,03,14,13.40
2013,02,25,03,15,13.50
2013,02,25,03,16,14.10
2013,02,25,03,17,13.90
2013,02,25,03,18,10.80
2013,02,25,03,19,13.60
2013,02,25,03,20,8.20
2013,02,25,03,21,10.90
2013,02,25,03,22,8.00
2013,02,25,03,23,12.70
2013,02,25,03,24,9.20
2013,02,25,03,25,10.90
2013,02,25,03,26,8.30
2013,02,25,03,27,15.40
2013,02,25,03,28,8.10
2013,02,25,03,29,9.40
2013,02,25,03,30,12.80
2013,02,25,03,31,10.00
2013,02,25,03,32,15.70
2013,02,25,03,33,11.60
2013,02,25,03,34,11.80
2013,02,25,03,35,14.70
2013,02,25,03,36,16.60
2013,02,25,03,37,16.60
2013,02,25,03,38,13.80
2013,02,25,03,39,17.10
2013,02,25,03,40,16.30
2013,02,25,03,41,17.10
2013,02,25,03,42,17.90
2013,02,25,03,43,17.40
2013,02,25,03,44,14.50
2013,02,25,03,45,11.50
2013,02,25,03,46,13.90
2013,02,25,03,47,13.60
2013,02,25,03,48,16.80
2013,02,25,03,49,14.60
2013,02,25,03,50,17.20
2013,02,25,03,51,13.90
2013,02,25,03,52,11.90
2013,02,25,03,53,15.80
2013,02,25,03,54,15.00
2013,02,25,03,55,13.40
2013,02,25,03,56,17.20
2013,02,25,03,57,15.50
2013,02,25,03,58,27.60
2013,02,25,03,59,21.00
2013,02,25,04,00,20.70
2013,02,25,04,01,25.10
2013,02,25,04,02,22.30
2013,02,25,04,03,15.90
2013,02,25,04,04,15.40
2013,02,25,04,05,11.90
2013,02,25,04,06,22.80
2013,02,25,04,07,19.20
2013,02,25,04,08,11.90
2013,02,25,04,09,17.80
2013,02,25,04,10,22.30
2013,02,25,04,11,22.70
2013,02,25,04,12,26.20
2013,02,25,04,13,25.40
2013,02,25,04,14,17.30
2013,02,25,04,15,19.70
2013,02,25,04,16,17.50
2013,02,25,04,17,14.60
2013,02,25,04,18,14.80
2013,02,25,04,19,11.50
2013,02,25,04,20,11.00
2013,02,25,04,21,16.70
2013,02,25,04,22,24.60
2013,02,25,04,23,21.20
2013,02,25,04,24,16.30
2013,02,25,04,25,16.70
2013,02,25,04,26,15.60
2013,02,25,04,27,21.10
2013,02,25,04,28,14.00
2013,02,25,04,29,17.40
2013,02,25,04,30,13.30
2013,02,25,04,31,10.30
2013,02,25,04,32,14.20
2013,02,25,04,33,14.80
2013,02,25,04,34,13.20
2013,02,25,04,35,23.30
2013,02,25,04,36,16.50
2013,02,25,04,37,19.30
2013,02,25,04,38,26.30
2013,02,25,04,39,23.00
2013,02,25,04,40,21.80
2013,02,25,04,41,28.90
2013,02,25,04,42,20.80
2013,02,25,04,43,30.80
2013,02,25,04,44,27.20
2013,02,25,04,45,15.90
2013,02,25,04,46,14.70
2013,02,25,04,47,27.70
2013,02,25,04,48,19.20
2013,02,25,04,49,22.80
2013,02,25,04,50,26.20
2013,02,25,04,51,20.50
2013,02,25,04,52,24.60
2013,02,25,04,53,21.10
2013,02,25,04,54,17.90
2013,02,25,04,55,20.20
2013,02,25,04,56,28.10
2013,02,25,04,57,30.20
2013,02,25,04,58,21.70
2013,02,25,04,59,16.70
2013,02,25,05,00,23.80
2013,02,25,05,01,17.90
2013,02,25,05,02,20.80
2013,02,25,05,03,26.50
2013,02,25,05,04,23.00
2013,02,25,05,05,20.50
2013,02,25,05,06,29.70
2013,02,25,05,07,26.10
2013,02,25,05,08,23.30
2013,02,25,05,09,21.50
2013,02,25,05,10,31.10
2013,02,25,05,11,14.60
2013,02,25,05,12,18.40
2013,02,25,05,13,33.10
2013,02,25,05,14,16.50
2013,02,25,05,15,24.50
2013,02,25,05,16,20.80
2013,02,25,05,17,15.60
2013,02,25,05,18,26.40
2013,02,25,05,19,20.30
2013,02,25,05,20,22.40
2013,02,25,05,21,23.80
2013,02,25,05,22,19.10
2013,02,25,05,23,21.10
2013,02,25,05,24,16.70
2013,02,25,05,25,22.90
2013,02,25,05,26,17.50
2013,02,25,05,27,14.10
2013,02,25,05,28,14.70
2013,02,25,05,29,20.50
2013,02,25,05,30,20.20
2013,02,25,05,31,22.70
2013,02,25,05,32,20.60
2013,02,25,05,33,22.30
2013,02,25,05,34,19.50
2013,02,25,05,35,21.60
2013,02,25,05,36,24.40
2013,02,25,05,37,18.80
2013,02,25,05,38,32.00
2013,02,25,05,39,17.50
2013,02,25,05,40,26.10
2013,02,25,05,41,24.00
2013,02,25,05,42,25.70
2013,02,25,05,43,23.70
2013,02,25,05,44,17.50
2013,02,25,05,45,22.40
2013,02,25,05,46,25.10
2013,02,25,05,47,23.40
2013,02,25,05,48,28.40
2013,02,25,05,49,20.80
2013,02,25,05,50,20.80
2013,02,25,05,51,16.30
2013,02,25,05,52,13.00
2013,02,25,05,53,18.70
2013,02,25,05,54,19.90
2013,02,25,05,55,29.10
2013,02,25,05,56,27.60
2013,02,25,05,57,23.50
2013,02,25,05,58,15.10
2013,02,25,05,59,23.30
2013,02,25,06,00,21.20
2013,02,25,06,01,13.40
2013,02,25,06,02,18.30
2013,02,25,06,03,13.20
2013,02,25,06,04,13.50
2013,02,25,06,05,15.20
2013,02,25,06,06,29.70
2013,02,25,06,07,18.80
2013,02,25,06,08,11.60
2013,02,25,06,09,18.80
2013,02,25,06,10,13.40
2013,02,25,06,11,12.60
2013,02,25,06,12,13.60
2013,02,25,06,13,18.10
2013,02,25,06,14,12.10
2013,02,25,06,15,13.10
2013,02,25,06,16,16.60
2013,02,25,06,17,11.20
2013,02,25,06,18,21.40
2013,02,25,06,19,15.70
2013,02,25,06,20,12.90
2013,02,25,06,21,15.60
2013,02,25,06,22,19.50
2013,02,25,06,23,19.30
2013,02,25,06,24,22.00
2013,02,25,06,25,17.10
2013,02,25,06,26,20.60
2013,02,25,06,27,17.30
2013,02,25,06,28,17.00
2013,02,25,06,29,20.40
2013,02,25,06,30,21.20
2013,02,25,06,31,19.20
2013,02,25,06,32,23.00
2013,02,25,06,33,16.70
2013,02,25,06,34,22.40
2013,02,25,06,35,21.40
2013,02,25,06,36,26.20
2013,02,25,06,37,16.30
2013,02,25,06,38,15.80
2013,02,25,06,39,27.80
2013,02,25,06,40,17.10
2013,02,25,06,41,23.10
2013,02,25,06,42,21.30
2013,02,25,06,43,24.40
2013,02,25,06,44,22.10
2013,02,25,06,45,21.20
2013,02,25,06,46,20.80
2013,02,25,06,47,20.30
2013,02,25,06,48,33.30
2013,02,25,06,49,20.90
2013,02,25,06,50,26.10
2013,02,25,06,51,26.50
2013,02,25,06,52,28.50
2013,02,25,06,53,25.10
2013,02,25,06,54,29.90
2013,02,25,06,55,25.60
2013,02,25,06,56,17.10
2013,02,25,06,57,25.90
2013,02,25,06,58,20.40
2013,02,25,06,59,23.60
2013,02,25,07,00,23.90
2013,02,25,07,01,19.00
2013,02,25,07,02,30.90
2013,02,25,07,03,22.60
2013,02,25,07,04,30.40
2013,02,25,07,05,25.60
2013,02,25,07,06,30.20
2013,02,25,07,07,27.20
2013,02,25,07,08,33.00
2013,02,25,07,09,22.00
2013,02,25,07,10,37.00
2013,02,25,07,11,26.50
2013,02,25,07,12,27.50
2013,02,25,07,13,37.40
2013,02,25,07,14,23.20
2013,02,25,07,15,28.20
2013,02,25,07,16,36.00
2013,02,25,07,17,28.70
2013,02,25,07,18,40.50
2013,02,25,07,19,22.20
2013,02,25,07,20,24.50
2013,02,25,07,21,29.40
2013,02,25,07,22,26.70
2013,02,25,07,23,24.60
2013,02,25,07,24,26.10
2013,02,25,07,25,17.20
2013,02,25,07,26,28.80
2013,02,25,07,27,38.10
2013,02,25,07,28,32.00
2013,02,25,07,29,33.30
2013,02,25,07,30,25.70
2013,02,25,07,31,26.60
2013,02,25,07,32,24.90
2013,02,25,07,33,25.80
2013,02,25,07,34,26.40
2013,02,25,07,35,30.00
2013,02,25,07,36,32.70
2013,02,25,07,37,30.30
2013,02,25,07,38,29.90
2013,02,25,07,39,27.30
2013,02,25,07,40,31.80
2013,02,25,07,41,32.60
2013,02,25,07,42,27.40
2013,02,25,07,43,24.30
2013,02,25,07,44,37.70
2013,02,25,07,45,29.00
2013,02,25,07,46,29.30
2013,02,25,07,47,24.60
2013,02,25,07,48,33.30
2013,02,25,07,49,36.90
2013,02,25,07,50,32.70
2013,02,25,07,51,26.90
2013,02,25,07,52,29.40
2013,02,25,07,53,34.60
2013,02,25,07,54,17.80
2013,02,25,07,55,15.50
2013,02,25,07,56,23.10
2013,02,25,07,57,24.10
2013,02,25,07,58,37.60
2013,02,25,07,59,30.70
2013,02,25,08,00,32.00
2013,02,25,08,01,15.30
2013,02,25,08,02,23.70
2013,02,25,08,03,29.30
2013,02,25,08,04,29.50
2013,02,25,08,05,32.80
2013,02,25,08,06,29.10
2013,02,25,08,07,21.40
2013,02,25,08,08,20.30
2013,02,25,08,09,34.90
2013,02,25,08,10,23.30
2013,02,25,08,11,21.20
2013,02,25,08,12,19.30
2013,02,25,08,13,27.30
2013,02,25,08,14,22.10
2013,02,25,08,15,36.60
2013,02,25,08,16,37.60
2013,02,25,08,17,31.90
2013,02,25,08,18,20.50
2013,02,25,08,19,24.00
2013,02,25,08,20,19.50
2013,02,25,08,21,27.00
2013,02,25,08,22,21.70
2013,02,25,08,23,21.40
2013,02,25,08,24,23.50
2013,02,25,08,25,23.30
2013,02,25,08,26,28.20
2013,02,25,08,27,33.50
2013,02,25,08,28,22.00
2013,02,25,08,29,25.20
2013,02,25,08,30,25.00
2013,02,25,08,31,25.30
2013,02,25,08,32,28.40
2013,02,25,08,33,21.10
2013,02,25,08,34,36.80
2013,02,25,08,35,21.50
2013,02,25,08,36,33.00
2013,02,25,08,37,26.30
2013,02,25,08,38,24.60
2013,02,25,08,39,37.90
2013,02,25,08,40,31.70
2013,02,25,08,41,30.80
2013,02,25,08,42,35.20
2013,02,25,08,43,28.20
2013,02,25,08,44,21.90
2013,02,25,08,45,44.10
2013,02,25,08,46,27.80
2013,02,25,08,47,30.20
2013,02,25,08,48,40.10
2013,02,25,08,49,33.50
2013,02,25,08,50,34.60
2013,02,25,08,51,35.60
2013,02,25,08,52,32.10
2013,02,25,08,53,29.40
2013,02,25,08,54,14.50
2013,02,25,08,55,27.80
2013,02,25,08,56,27.10
2013,02,25,08,57,26.50
2013,02,25,08,58,23.00
2013,02,25,08,59,24.60
2013,02,25,09,00,20.20
2013,02,25,09,01,25.60
2013,02,25,09,02,18.20
2013,02,25,09,03,27.90
2013,02,25,09,04,29.60
2013,02,25,09,05,22.40
2013,02,25,09,06,25.30
2013,02,25,09,07,29.80
2013,02,25,09,08,26.00
2013,02,25,09,09,25.30
2013,02,25,09,10,19.30
2013,02,25,09,11,29.90
2013,02,25,09,12,27.30
2013,02,25,09,13,23.40
2013,02,25,09,14,33.70
2013,02,25,09,15,30.60
2013,02,25,09,16,36.60
2013,02,25,09,17,34.30
2013,02,25,09,18,22.30
2013,02,25,09,19,27.70
2013,02,25,09,20,30.70
2013,02,25,09,21,24.50
2013,02,25,09,22,30.60
2013,02,25,09,23,39.90
2013,02,25,09,24,27.30
2013,02,25,09,25,23.40
2013,02,25,09,26,26.80
2013,02,25,09,27,25.70
2013,02,25,09,28,31.20
2013,02,25,09,29,22.00
2013,02,25,09,30,34.10
2013,02,25,09,31,16.20
2013,02,25,09,32,15.80
2013,02,25,09,33,18.60
2013,02,25,09,34,17.30
2013,02,25,09,35,21.00
2013,02,25,09,36,24.50
2013,02,25,09,37,17.90
2013,02,25,09,38,16.50
2013,02,25,09,39,16.70
2013,02,25,09,40,30.70
2013,02,25,09,41,27.40
2013,02,25,09,42,25.50
2013,02,25,09,43,29.90
2013,02,25,09,44,29.80
2013,02,25,09,45,28.20
2013,02,25,09,46,34.80
2013,02,25,09,47,30.00
2013,02,25,09,48,17.90
2013,02,25,09,49,25.70
2013,02,25,09,50,26.20
2013,02,25,09,51,24.50
2013,02,25,09,52,25.00
2013,02,25,09,53,34.10
2013,02,25,09,54,24.30
2013,02,25,09,55,36.10
2013,02,25,09,56,24.70
2013,02,25,09,57,29.50
2013,02,25,09,58,32.30
2013,02,25,09,59,30.70
2013,02,25,10,00,26.70
2013,02,25,10,01,23.70
2013,02,25,10,02,27.70
2013,02,25,10,03,20.90
2013,02,25,10,04,25.00
2013,02,25,10,05,40.50
2013,02,25,10,06,30.60
2013,02,25,10,07,28.60
2013,02,25,10,08,34.00
2013,02,25,10,09,32.20
2013,02,25,10,10,25.70
2013,02,25,10,11,34.10
2013,02,25,10,12,34.20
2013,02,25,10,13,33.80
2013,02,25,10,14,28.50
2013,02,25,10,15,31.50
2013,02,25,10,16,18.40
2013,02,25,10,17,24.90
2013,02,25,10,18,31.70
2013,02,25,10,19,22.30
2013,02,25,10,20,33.40
2013,02,25,10,21,20.60
2013,02,25,10,22,27.00
2013,02,25,10,23,27.50
2013,02,25,10,24,37.60
2013,02,25,10,25,27.00
2013,02,25,10,26,39.50
2013,02,25,10,27,19.00
2013,02,25,10,28,37.50
2013,02,25,10,29,39.60
2013,02,25,10,30,23.70
2013,02,25,10,31,37.50
2013,02,25,10,32,41.40
2013,02,25,10,33,33.00
2013,02,25,10,34,29.10
2013,02,25,10,35,39.10
2013,02,25,10,36,28.50
2013,02,25,10,37,24.70
2013,02,25,10,38,37.50
2013,02,25,10,39,30.10
2013,02,25,10,40,25.80
2013,02,25,10,41,31.90
2013,02,25,10,42,30.10
2013,02,25,10,43,28.90
2013,02,25,10,44,20.40
2013,02,25,10,45,32.40
2013,02,25,10,46,22.70
2013,02,25,10,47,37.50
2013,02,25,10,48,32.70
2013,02,25,10,49,27.70
2013,02,25,10,50,30.20
2013,02,25,10,51,33.70
2013,02,25,10,52,19.60
2013,02,25,10,53,28.20
2013,02,25,10,54,23.40
2013,02,25,10,55,32.60
2013,02,25,10,56,26.10
2013,02,25,10,57,31.50
2013,02,25,10,58,30.20
2013,02,25,10,59,32.70
2013,02,25,11,00,38.40
2013,02,25,11,01,23.20
2013,02,25,11,02,19.20
2013,02,25,11,03,19.30
2013,02,25,11,04,27.10
2013,02,25,11,05,30.30
2013,02,25,11,06,26.20
2013,02,25,11,07,30.20
2013,02,25,11,08,38.80
2013,02,25,11,09,37.30
2013,02,25,11,10,35.80
2013,02,25,11,11,27.00
2013,02,25,11,12,18.50
2013,02,25,11,13,17.00
2013,02,25,11,14,18.30
2013,02,25,11,15,28.00
2013,02,25,11,16,29.90
2013,02,25,11,17,35.30
2013,02,25,11,18,35.90
2013,02,25,11,19,35.90
2013,02,25,11,20,40.90
2013,02,25,11,21,37.60
2013,02,25,11,22,29.40
2013,02,25,11,23,18.10
2013,02,25,11,24,25.70
2013,02,25,11,25,35.60
2013,02,25,11,26,35.00
2013,02,25,11,27,27.50
2013,02,25,11,28,28.70
2013,02,25,11,29,28.60
2013,02,25,11,30,36.70
2013,02,25,11,31,36.30
2013,02,25,11,32,30.40
2013,02,25,11,33,35.90
2013,02,25,11,34,23.00
2013,02,25,11,35,37.80
2013,02,25,11,36,33.20
2013,02,25,11,37,23.90
2013,02,25,11,38,25.80
2013,02,25,11,39,28.10
2013,02,25,11,40,27.60
2013,02,25,11,41,28.40
2013,02,25,11,42,24.90
2013,02,25,11,43,25.80
2013,02,25,11,44,24.30
2013,02,25,11,45,33.20
2013,02,25,11,46,23.60
2013,02,25,11,47,26.50
2013,02,25,11,48,30.80
2013,02,25,11,49,27.00
2013,02,25,11,50,21.50
2013,02,25,11,51,24.00
2013,02,25,11,52,21.60
2013,02,25,11,53,26.10
2013,02,25,11,54,21.20
2013,02,25,11,55,18.50
2013,02,25,11,56,26.80
2013,02,25,11,57,25.70
2013,02,25,11,58,21.90
2013,02,25,11,59,24.50
2013,02,25,12,00,24.10
2013,02,25,12,01,34.10
2013,02,25,12,02,31.10
2013,02,25,12,03,20.70
2013,02,25,12,04,23.10
2013,02,25,12,05,17.30
2013,02,25,12,06,22.80
2013,02,25,12,07,25.20
2013,02,25,12,08,37.20
2013,02,25,12,09,25.80
2013,02,25,12,10,35.60
2013,02,25,12,11,26.70
2013,02,25,12,12,26.70
2013,02,25,12,13,29.50
2013,02,25,12,14,31.90
2013,02,25,12,15,32.00
2013,02,25,12,16,26.80
2013,02,25,12,17,28.50
2013,02,25,12,18,26.40
2013,02,25,12,19,28.90
2013,02,25,12,20,25.30
2013,02,25,12,21,29.30
2013,02,25,12,22,23.30
2013,02,25,12,23,32.00
2013,02,25,12,24,31.80
2013,02,25,12,25,29.50
2013,02,25,12,26,21.90
2013,02,25,12,27,29.30
2013,02,25,12,28,30.90
2013,02,25,12,29,25.90
2013,02,25,12,30,26.40
2013,02,25,12,31,26.10
2013,02,25,12,32,38.20
2013,02,25,12,33,26.80
2013,02,25,12,34,40.50
2013,02,25,12,35,32.30
2013,02,25,12,36,34.60
2013,02,25,12,37,33.30
2013,02,25,12,38,38.60
2013,02,25,12,39,30.60
2013,02,25,12,40,33.00
2013,02,25,12,41,40.10
2013,02,25,12,42,34.20
2013,02,25,12,43,33.60
2013,02,25,12,44,22.90
2013,02,25,12,45,23.70
2013,02,25,12,46,26.50
2013,02,25,12,47,27.90
2013,02,25,12,48,27.80
2013,02,25,12,49,27.50
2013,02,25,12,50,35.60
2013,02,25,12,51,26.50
2013,02,25,12,52,33.20
2013,02,25,12,53,36.00
2013,02,25,12,54,32.10
2013,02,25,12,55,21.50
2013,02,25,12,56,20.20
2013,02,25,12,57,26.80
2013,02,25,12,58,23.90
2013,02,25,12,59,24.10
2013,02,25,13,00,27.00
2013,02,25,13,01,36.40
2013,02,25,13,02,31.90
2013,02,25,13,03,33.00
2013,02,25,13,04,32.00
2013,02,25,13,05,27.80
2013,02,25,13,06,38.20
2013,02,25,13,07,41.20
2013,02,25,13,08,39.50
2013,02,25,13,09,28.40
2013,02,25,13,10,32.30
2013,02,25,13,11,38.20
2013,02,25,13,12,36.00
2013,02,25,13,13,25.10
2013,02,25,13,14,33.70
2013,02,25,13,15,30.30
2013,02,25,13,16,27.60
2013,02,25,13,17,25.40
2013,02,25,13,18,26.60
2013,02,25,13,19,37.30
2013,02,25,13,20,30.30
2013,02,25,13,21,27.70
2013,02,25,13,22,41.30
2013,02,25,13,23,23.20
2013,02,25,13,24,16.50
2013,02,25,13,25,20.80
2013,02,25,13,26,21.20
2013,02,25,13,27,21.10
2013,02,25,13,28,18.90
2013,02,25,13,29,23.10
2013,02,25,13,30,25.70
2013,02,25,13,31,26.10
2013,02,25,13,32,23.50
2013,02,25,13,33,15.30
2013,02,25,13,34,26.20
2013,02,25,13,35,25.30
2013,02,25,13,36,33.70
2013,02,25,13,37,39.60
2013,02,25,13,38,38.10
2013,02,25,13,39,20.80
2013,02,25,13,40,29.00
2013,02,25,13,41,40.00
2013,02,25,13,42,29.50
2013,02,25,13,43,29.00
2013,02,25,13,44,24.70
2013,02,25,13,45,22.90
2013,02,25,13,46,39.00
2013,02,25,13,47,32.00
2013,02,25,13,48,12.60
2013,02,25,13,49,20.20
2013,02,25,13,50,13.00
2013,02,25,13,51,25.00
2013,02,25,13,52,24.40
2013,02,25,13,53,23.60
2013,02,25,13,54,21.60
2013,02,25,13,55,14.10
2013,02,25,13,56,16.20
2013,02,25,13,57,33.20
2013,02,25,13,58,24.90
2013,02,25,13,59,22.80
2013,02,25,14,00,20.80
2013,02,25,14,01,21.00
2013,02,25,14,02,23.90
2013,02,25,14,03,7.80
2013,02,25,14,04,14.50
2013,02,25,14,05,25.10
2013,02,25,14,06,19.50
2013,02,25,14,07,19.20
2013,02,25,14,08,27.20
2013,02,25,14,09,17.90
2013,02,25,14,10,24.00
2013,02,25,14,11,23.70
2013,02,25,14,12,24.60
2013,02,25,14,13,25.80
2013,02,25,14,14,23.30
2013,02,25,14,15,33.20
2013,02,25,14,16,26.20
2013,02,25,14,17,24.40
2013,02,25,14,18,21.70
2013,02,25,14,19,28.30
2013,02,25,14,20,19.50
2013,02,25,14,21,28.90
2013,02,25,14,22,29.70
2013,02,25,14,23,23.00
2013,02,25,14,24,29.70
2013,02,25,14,25,22.30
2013,02,25,14,26,26.90
2013,02,25,14,27,32.00
2013,02,25,14,28,24.30
2013,02,25,14,29,33.60
2013,02,25,14,30,16.00
2013,02,25,14,31,19.50
2013,02,25,14,32,16.00
2013,02,25,14,33,13.00
2013,02,25,14,34,18.60
2013,02,25,14,35,23.00
2013,02,25,14,36,22.70
2013,02,25,14,37,25.80
2013,02,25,14,38,22.90
2013,02,25,14,39,28.70
2013,02,25,14,40,29.60
2013,02,25,14,41,28.60
2013,02,25,14,42,25.80
2013,02,25,14,43,32.20
2013,02,25,14,44,24.20
2013,02,25,14,45,23.40
2013,02,25,14,46,37.30
2013,02,25,14,47,25.00
2013,02,25,14,48,24.50
2013,02,25,14,49,25.10
2013,02,25,14,50,23.10
2013,02,25,14,51,19.30
2013,02,25,14,52,22.80
2013,02,25,14,53,20.90
2013,02,25,14,54,17.80
2013,02,25,14,55,17.80
2013,02,25,14,56,20.50
2013,02,25,14,57,25.30
2013,02,25,14,58,21.50
2013,02,25,14,59,16.20
2013,02,25,15,00,26.10
2013,02,25,15,01,30.40
2013,02,25,15,02,23.60
2013,02,25,15,03,30.70
2013,02,25,15,04,29.90
2013,02,25,15,05,18.40
2013,02,25,15,06,23.30
2013,02,25,15,07,27.80
2013,02,25,15,08,19.90
2013,02,25,15,09,21.80
2013,02,25,15,10,24.70
2013,02,25,15,11,27.40
2013,02,25,15,12,19.90
2013,02,25,15,13,23.20
2013,02,25,15,14,29.20
2013,02,25,15,15,26.90
2013,02,25,15,16,33.20
2013,02,25,15,17,32.00
2013,02,25,15,18,29.10
2013,02,25,15,19,33.50
2013,02,25,15,20,20.00
2013,02,25,15,21,38.50
2013,02,25,15,22,24.90
2013,02,25,15,23,28.70
2013,02,25,15,24,23.20
2013,02,25,15,25,17.60
2013,02,25,15,26,25.80
2013,02,25,15,27,28.30
2013,02,25,15,28,32.90
2013,02,25,15,29,33.60
2013,02,25,15,30,18.40
2013,02,25,15,31,22.50
2013,02,25,15,32,26.20
2013,02,25,15,33,20.50
2013,02,25,15,34,23.10
2013,02,25,15,35,20.10
2013,02,25,15,36,21.40
2013,02,25,15,37,22.40
2013,02,25,15,38,10.30
2013,02,25,15,39,11.00
2013,02,25,15,40,28.70
2013,02,25,15,41,23.90
2013,02,25,15,42,21.30
2013,02,25,15,43,15.50
2013,02,25,15,44,16.10
2013,02,25,15,45,21.70
2013,02,25,15,46,14.20
2013,02,25,15,47,26.10
2013,02,25,15,48,17.60
2013,02,25,15,49,12.60
2013,02,25,15,50,16.50
2013,02,25,15,51,35.10
2013,02,25,15,52,29.00
2013,02,25,15,53,22.00
2013,02,25,15,54,24.00
2013,02,25,15,55,20.60
2013,02,25,15,56,25.50
2013,02,25,15,57,27.80
2013,02,25,15,58,16.00
2013,02,25,15,59,27.10
2013,02,25,16,00,27.70
2013,02,25,16,01,22.40
2013,02,25,16,02,21.90
2013,02,25,16,03,24.10
2013,02,25,16,04,27.00
2013,02,25,16,05,29.10
2013,02,25,16,06,24.10
2013,02,25,16,07,22.10
2013,02,25,16,08,13.50
2013,02,25,16,09,19.20
2013,02,25,16,10,27.80
2013,02,25,16,11,28.60
2013,02,25,16,12,23.80
2013,02,25,16,13,22.80
2013,02,25,16,14,17.70
2013,02,25,16,15,16.60
2013,02,25,16,16,26.20
2013,02,25,16,17,19.90
2013,02,25,16,18,21.40
2013,02,25,16,19,16.40
2013,02,25,16,20,14.40
2013,02,25,16,21,27.00
2013,02,25,16,22,20.60
2013,02,25,16,23,21.50
2013,02,25,16,24,27.70
2013,02,25,16,25,31.40
2013,02,25,16,26,30.00
2013,02,25,16,27,16.80
2013,02,25,16,28,21.90
2013,02,25,16,29,10.70
2013,02,25,16,30,13.40
2013,02,25,16,31,19.60
2013,02,25,16,32,18.10
2013,02,25,16,33,13.80
2013,02,25,16,34,31.10
2013,02,25,16,35,12.00
2013,02,25,16,36,14.30
2013,02,25,16,37,11.60
2013,02,25,16,38,14.00
2013,02,25,16,39,12.90
2013,02,25,16,40,12.50
2013,02,25,16,41,23.00
2013,02,25,16,42,27.50
2013,02,25,16,43,27.80
2013,02,25,16,44,16.10
2013,02,25,16,45,11.70
2013,02,25,16,46,19.90
2013,02,25,16,47,13.20
2013,02,25,16,48,10.80
2013,02,25,16,49,15.40
2013,02,25,16,50,12.20
2013,02,25,16,51,19.50
2013,02,25,16,52,20.80
2013,02,25,16,53,23.50
2013,02,25,16,54,21.70
2013,02,25,16,55,24.50
2013,02,25,16,56,14.40
2013,02,25,16,57,14.20
2013,02,25,16,58,20.40
2013,02,25,16,59,14.60
2013,02,25,17,00,18.50
2013,02,25,17,01,9.90
2013,02,25,17,02,20.70
2013,02,25,17,03,15.40
2013,02,25,17,04,23.40
2013,02,25,17,05,19.30
2013,02,25,17,06,18.10
2013,02,25,17,07,29.00
2013,02,25,17,08,21.60
2013,02,25,17,09,17.80
2013,02,25,17,10,24.80
2013,02,25,17,11,15.00
2013,02,25,17,12,29.50
2013,02,25,17,13,23.70
2013,02,25,17,14,28.10
2013,02,25,17,15,21.60
2013,02,25,17,16,20.30
2013,02,25,17,17,21.10
2013,02,25,17,18,8.60
2013,02,25,17,19,17.10
2013,02,25,17,20,20.60
2013,02,25,17,21,14.60
2013,02,25,17,22,16.90
2013,02,25,17,23,21.50
2013,02,25,17,24,23.80
2013,02,25,17,25,20.40
2013,02,25,17,26,20.70
2013,02,25,17,27,19.50
2013,02,25,17,28,19.70
2013,02,25,17,29,17.80